YUBELEINY

导读

YUBELEINY卫星是由独联体(CIS)于2008年5月23日08:00发射升空的人造卫星。作为独联体航天发射活动的组成部分,该卫星进入预定轨道后,承担起相应的空间任务,推动了独联体在航天领域的探索与应用,为空间科学研究或相关应用服务提供了支撑,是独联体航天活动发展进程中的一枚重要空间飞行器。

基本信息
目录编号:
32953
目录名称:
YUBELEINY
国际标识:
2008-025A
轨道中心:
EARTH
卫星名称:
YUBELEINY
卫星全名:
--
卫星状态:
在轨 (已飞行6599 天)
发射日期:
2008-05-23 UTC
国别 :
俄罗斯(独联体) (CIS)
星等 :
--
轨道信息
数据来源 国际轨道数据 AOE轨道数据
星历时间 2026-06-17T12:17:40+0800
5小时前
查看轨道信息
2026-06-16T14:00:00+0800
1天前
查看轨道信息
半长轴 7871.291km 7871.293km
偏心率 0.0018867 0.0019057
轨道倾角 82.504° 82.503°
近地点辐角 313.951° 315.226°
升交点赤经 355.445° 356.021°
平近点角 46.002° 209.332°
近地点 1478.303km 1478.155km
远地点 1508.005km 1508.157km
周期 115.832分钟 115.832分钟
每日圈数 12.431796 12.431791
详细信息
使用方式:
暂无
2D轨道图
3D轨道图
轨道高度分析图
轨道倾角分析图
轨道综合分析图
查看轨道综合分析图